Location: Huntsville
(41.2590°N, 111.7678°W)
Time: 22:18:22
(UTC+00:00)

SR - Pass Details

Date: 22 June 2021
Orbit: 577 x 878 km, 66.7° (Epoch: 28 July)

Event Time Altitude Azimuth Distance (km) Brightness Sun altitude
Rises 06:55:47 0° 339° (NNW) 3,308 ? -24.8°
Reaches altitude 10° 06:58:51 10° 354° (N) 2,319 ? -24.9°
Maximum altitude 07:02:54 22° 44° (NE) 1,581 ? -25.0°
Enters shadow 07:06:06 12° 89° (E) 2,002 ? -25.1°
